{"data":{"norad_id":68732,"epoch":"2026-09-19T20:43:44.035104Z","epoch_age_seconds":96309,"freshness":"FRESH","line1":"1 68732U 26082E   26262.86370411  .00013305  00000+0  41371-3 0  9992","line2":"2 68732  97.2848 124.9570 0002081  89.9787 270.1695 15.33444848 24205","mean_motion":15.33444848,"eccentricity":0.0002081,"inclination_deg":97.2848,"raan_deg":124.957,"arg_perigee_deg":89.9787,"mean_anomaly_deg":270.1695,"bstar":0.00041371,"rev_number":2420,"period_min":93.906213965121,"perigee_km":464.11945678481,"apogee_km":466.96779666165,"semimajor_km":6843.6806267232,"source":"CELESTRAK","updated_at":"2026-09-20T09:00:43.990579Z"}}